Regional Weather Roundup
Issued by NWS

Home | Current Version | Previous Version | Text Only | Print | Product List | Glossary Off
Versions: 1 2 3 4 5 6 7 8 9 10 11 12 13 14 15 16 17 18 19 20 21 22 23 24 25 26 27 28 29 30 31 32 33 34 35 36 37 38 39 40 41 42 43 44 45 46 47 48 49 50

000
ASUS43 KDTX 271710
RWRMI
MICHIGAN HOURLY REGIONAL WEATHER ROUNDUP
NATIONAL WEATHER SERVICE DETROIT/PONTIAC MI
1200 PM EST THU NOV 27 2014

NOTE: "FAIR" INDICATES FEW OR NO CLOUDS BELOW 12,000 FEET WITH NO
SIGNIFICANT WEATHER AND/OR OBSTRUCTION TO VISIBILITY.

MIZ047>049-052>055-059>063-066>070-074>076-081>083-271800-
SOUTHEAST LOWER MICHIGAN

CITY           SKY/WX    TMP DP  RH WIND       PRES   REMARKS
ADRIAN         CLOUDY    31  23  72 W10       30.19F WCI  22
ALMA           CLOUDY    30  23  74 NW10      30.18F WCI  21
ANN ARBOR      PTSUNNY   34  22  61 W12       30.16F WCI  25
BAD AXE        LGT SNOW  29  28  93 NW15      30.12S WCI  18
CARO           CLOUDY    30  27  86 NW13      30.14F WCI  20
DETROIT CITY   CLOUDY    34  21  59 W10       30.15F WCI  26
DETROIT        PTSUNNY   35  23  61 W10       30.16F WCI  27
FLINT          CLOUDY    32  23  69 W13       30.16F WCI  22
GROSSE ILE     CLOUDY    34  21  60 W7        30.15F WCI  28
HILLSDALE      LGT SNOW  30  25  81 W8        30.17F WCI  23
HOWELL         CLOUDY    31  24  75 W8        30.15F WCI  23

CITY           SKY/WX    TMP DP  RH WIND       PRES   REMARKS
JACKSON        CLOUDY    31  24  75 W7        30.17F WCI  24
LAMBERTVILLE   CLOUDY    34  25  69 W14       30.19S WCI  24
LANSING        CLOUDY    30  23  75 W9        30.18F WCI  22
LAPEER         CLOUDY    30  24  76 NW12      30.13F WCI  21
MASON          CLOUDY    31  25  77 W8        30.16F WCI  24
MONROE         MOSUNNY   34  25  69 W10       30.16F WCI  26
MT. CLEMENS    PTSUNNY   34  23  64 W14       30.12S WCI  24
PONTIAC        CLOUDY    31  21  66 NW12      30.13S WCI  22
PORT HOPE        N/A     31  27  85 NW15G23   30.09R WCI  20
PORT HURON     CLOUDY    32  23  69 W8        30.13S WCI  25
TRI CITIES     CLOUDY    31  23  72 NW14      30.17F WCI  21
TROY           CLOUDY    35  23  62 W12       30.15F WCI  26
SAGINAW HB     LGT SNOW  32  28  86 NW12      30.16S WCI  23
$$
MIZ043>046-050>051-056>058-064>065-071>073-077>080-271800-
SOUTHWEST LOWER MICHIGAN

CITY           SKY/WX    TMP DP  RH WIND       PRES   REMARKS
BATTLE CREEK   CLOUDY    32  27  81 SW8       30.17F WCI  25
BENTON HARBOR  CLOUDY    31  25  78 NW13G23   30.25S WCI  21
BIG RAPIDS     CLOUDY    27  21  78 N12       30.19S WCI  16
COLDWATER      LGT SNOW  32  28  86 W8        30.19F WCI  25
FREMONT        LGT SNOW  27  23  85 N13       30.22R WCI  16
HOLLAND        LGT SNOW  31  26  82 NW5       30.23S WCI  26
GRAND RAPIDS   CLOUDY    30  24  78 NW7       30.20S WCI  23
IONIA          CLOUDY    31  24  78 NW8       30.17F WCI  23
KALAMAZOO      LGT SNOW  31  27  85 W10       30.19F FOG     WCI  22
LUDINGTON      LGT SNOW  22  19  87 N17G23    30.28R WCI   8
MARSHALL       LGT SNOW  30  26  84 W8        30.17F WCI  22
MOUNT PLEASANT CLOUDY    29  20  70 NW7       30.18S WCI  22
MUSKEGON       SNOW      29  23  78 NW12      30.24S VSB 1/2 WCI  19
SOUTH HAVEN    LGT SNOW  32  29  88 NW16G23   30.23S WCI  21
$$
MIZ016>042-271800-
NORTHERN LOWER MICHIGAN

CITY           SKY/WX    TMP DP  RH WIND       PRES   REMARKS
ALPENA         CLOUDY    23  15  71 NW12G25   30.17R WCI  12
BEAVER ISLAND  CLOUDY    22  12  65 NW10G18   30.24F WCI  11
BELLAIRE       LGT SNOW  23  17  78 N6        30.24F WCI  16
CADILLAC       LGT SNOW  24  18  79 NW14G22   30.17S WCI  11
CHARLEVOIX     CLOUDY    22  12  67 NW13G18   30.26F WCI  10
FRANKFORT      CLOUDY    22  16  76 N9G18     30.27S WCI  12
GAYLORD        LGT SNOW  20  13  74 NW9       30.16S WCI   9
GRAYLING       FLURRIES  23  17  79 NW12      30.17F WCI  12
HARBOR SPRINGS CLOUDY    22  11  62 NW9G18    30.22S WCI  12
HOUGHTON LAKE  CLOUDY    24  16  71 NW13      30.17S WCI  12
MANISTEE       CLOUDY    23  14  68 N14G22    30.27S WCI  11
OSCODA         LGT SNOW  25  20  81 NW17G25   30.14S WCI  12
PELLSTON       PTSUNNY   21  10  62 NW22      30.22F WCI   5
ROGERS CITY    CLOUDY    24  19  84 W10G21    30.19S WCI  13
TRAVERSE CITY  LGT SNOW  24  17  74 NW10      30.23F WCI  14
$$
MIZ007>008-015-271800-
EASTERN UPPER MICHIGAN

CITY           SKY/WX    TMP DP  RH WIND       PRES   REMARKS
KINROSS        MOSUNNY   21  12  68 NW17      30.16F WCI   7
MACKINAC ISLAN PTSUNNY   22  12  65 NW14G22   30.19F WCI   9
NEWBERRY       CLOUDY    18  10  70 NW10G18   30.21S WCI   6
S. S. MARIE    LGT SNOW  20  11  68 NW15G24   30.14F WCI   6
MUNISING         N/A     21   7  54 NW21G29   30.28R WCI   5
$$
MIZ004>006-011>014-085-271800-
CENTRAL UPPER MICHIGAN

CITY           SKY/WX    TMP DP  RH WIND       PRES   REMARKS
MANISTIQUE     LGT SNOW  19  14  80 NW14G20   30.25F WCI   5
ESCANABA       SUNNY     16   1  53 NW14G22   30.31S WCI   1
MENOMINEE      SUNNY     16   3  57 N13       30.33S WCI   2
SAWYER-GWINN   MOSUNNY   12   3  67 NW17G23   30.27R WCI  -5
$$
MIZ001>003-009>011-084-271800-
WESTERN UPPER MICHIGAN

CITY           SKY/WX    TMP DP  RH WIND       PRES   REMARKS
IRON MOUNTAIN  MOSUNNY   12   1  61 NW16      30.30F WCI  -5
HOUGHTON       FLURRIES  10   0  63 N10       30.32F WCI  -4
COPPER HARBOR    N/A     14   7  73 N20G28    30.34S WCI  -3
IRONWOOD       CLOUDY    10   7  85 NW14      30.34F WCI  -5
$$

ABBREVIATIONS USED IN REMARKS
   TC - TEMPERATURE IN CELSIUS
  WCI - WIND CHILL INDEX
   HX - HEAT INDEX
  VSB - VISIBILITY



USA.gov is the U.S. government's official web portal to all federal, state and local government web resources and services.